FW5988 Weather Reports


time (UTC)temp
C
wind
direction
speed
KPH
gust
KPH
rain 1hr
cm
rain 24hr
cm
rain mn
cm
humidity
%
barometer
mb
20260504081541 13 258 9.7 17.7 0.00 0.00 0.00 36 1016.4
20260504080104 13 220 8.0 14.5 0.00 0.00 0.00 38 1016.3
20260504044605 13 202 9.7 22.5 0.00 0.00 0.00 38 1016.8
20260504043033 13 205 12.9 19.3 0.00 0.00 0.00 38 1016.8
20260504041552 12 214 11.3 19.3 0.00 0.00 0.00 39 1016.8
20260504034520 13 217 11.3 17.7 0.00 0.00 0.00 35 1016.7
20260504033042 13 219 11.3 20.9 0.00 0.00 0.00 34 1016.6
20260504031603 13 229 14.5 24.1 0.00 0.00 0.00 34 1016.6
20260504030040 13 250 11.3 22.5 0.00 0.00 0.00 34 1016.6
20260504024551 13 222 6.4 17.7 0.00 0.00 0.00 35 1016.7
20260504023010 13 201 14.5 24.1 0.00 0.00 0.00 34 1016.6
20260504021539 13 196 12.9 24.1 0.00 0.00 0.00 34 1016.5
20260504020055 13 222 11.3 22.5 0.00 0.00 0.00 36 1016.4
20260504014526 12 219 11.3 19.3 0.00 0.00 0.00 38 1016.3
20260504013052 12 205 8.0 16.1 0.00 0.00 0.00 40 1016.2
20260504011516 12 204 8.0 16.1 0.00 0.00 0.00 39 1016.1
20260504010045 13 173 9.7 16.1 0.00 0.00 0.00 39 1016.1
20260504004502 13 193 9.7 17.7 0.00 0.00 0.00 38 1016.1
20260504003045 13 191 9.7 17.7 0.00 0.00 0.00 39 1015.9
20260504001625 13 164 8.0 19.3 0.00 0.00 0.00 39 1016.0
20260504000029 13 161 8.0 16.1 0.00 0.00 0.00 39 1016.0
20260503234558 13 172 6.4 14.5 0.00 0.00 0.00 39 1015.8
20260503233034 13 123 8.0 16.1 0.00 0.00 0.00 38 1015.8
20260503231550 14 163 4.8 11.3 0.00 0.00 0.00 37 1015.6
20260503230013 15 165 3.2 8.0 0.00 0.00 0.00 35 1015.7
20260503224554 15 165 3.2 11.3 0.00 0.00 0.00 35 1015.8
20260503223004 15 206 4.8 17.7 0.00 0.00 0.00 33 1015.7
20260503221527 16 240 8.0 17.7 0.00 0.00 0.00 33 1015.8
20260503220103 15 257 6.4 20.9 0.00 0.00 0.00 33 1015.9
20260503214530 15 245 3.2 9.7 0.00 0.00 0.00 35 1016.0
20260503213056 15 259 1.6 17.7 0.00 0.00 0.00 32 1015.8
20260503211504 15 231 4.8 20.9 0.00 0.00 0.00 35 1015.8
20260503210038 15 212 8.0 17.7 0.00 0.00 0.00 35 1016.0
20260503204505 15 304 4.8 27.4 0.00 0.00 0.00 36 1015.9
20260503203036 14 246 11.3 24.1 0.00 0.00 0.00 34 1016.1
20260503201558 14 279 12.9 25.7 0.00 0.00 0.00 35 1016.4
20260503200028 14 294 9.7 24.1 0.00 0.00 0.00 35 1016.6
20260503194544 13 206 12.9 20.9 0.00 0.00 0.00 36 1016.6
20260503193019 13 186 12.9 22.5 0.00 0.00 0.00 37 1016.9
20260503191539 13 323 11.3 27.4 0.00 0.00 0.00 38 1017.1
20260503190100 13 287 17.7 30.6 0.00 0.00 0.00 37 1017.3
20260503184532 12 294 6.4 24.1 0.00 0.00 0.00 40 1017.5
20260503183057 12 234 12.9 20.9 0.00 0.00 0.00 40 1017.8
20260503181523 12 235 11.3 17.7 0.00 0.00 0.00 42 1017.8
20260503180048 11 330 14.5 24.1 0.00 0.00 0.00 40 1017.9
20260503174501 12 263 11.3 22.5 0.00 0.00 0.00 42 1018.2
20260503173035 11 290 11.3 22.5 0.00 0.00 0.00 43 1018.2
20260503171501 11 294 8.0 24.1 0.00 0.00 0.00 44 1018.2